Location: Newark
(34.0131°N, 4.3314°W)
Time: 02:38:20
(UTC+00:00)

Explorer 7 - Pass Details

Date: 19 October 2019
Orbit: 485 x 680 km, 50.3° (Epoch: 20 November)

Event Time Altitude Azimuth Distance (km) Brightness Sun altitude
Rises 18:16:24 0° 313° (NW) 2,646 11.0 -8.5°
Reaches altitude 10° 18:18:34 10° 315° (NW) 1,783 10.0 -9.0°
Maximum altitude 18:22:37 72° 40° (NE) 586 6.8 -9.8°
Drops below altitude 10° 18:26:55 10° 125° (SE) 1,895 9.1 -10.7°
Enters shadow 18:27:29 - 126° (SE) 2,115 9.4 -10.8°
Sets 18:29:16 0° 128° (SE) 2,829 - -11.2°
